SWA247 KLAS-KSNA

Flight info

Callsign SWA247
Flight time 0h 38m
Altitude 28000
Route RADYR2 SLVRR FEYLA DSNEE6
Aircraft B38M/M-SADE2E3GHIJ4J7P2RWZ/LB1D1

Departure

Time 2026-05-07 22:57
Airport Harry Reid International Airport (KLAS)

Arrival

Time 2026-05-07 23:35
Airport John Wayne Orange County International Airport (KSNA)
Time Latitude Longitude Altitude Speed Heading
2026-05-07 22:20 36.08229 -115.15059 2099 ft 0 kts 339°
2026-05-07 22:34 36.08207 -115.15049 2099 ft 2 kts 338°
2026-05-07 22:34 36.08185 -115.15041 2099 ft 4 kts
2026-05-07 22:34 36.08162 -115.15051 2099 ft 4 kts 38°
2026-05-07 22:34 36.08154 -115.15060 2099 ft 1 kts 45°
2026-05-07 22:45 36.08157 -115.15056 2099 ft 4 kts 45°
2026-05-07 22:45 36.08170 -115.14985 2099 ft 14 kts 114°
2026-05-07 22:45 36.08088 -115.14918 2099 ft 14 kts 155°
2026-05-07 22:45 36.07992 -115.14862 2099 ft 17 kts 155°
2026-05-07 22:46 36.07897 -115.14816 2100 ft 14 kts 172°
2026-05-07 22:46 36.07854 -115.14747 2099 ft 12 kts 95°
2026-05-07 22:46 36.07847 -115.14630 2099 ft 15 kts 95°
2026-05-07 22:46 36.07837 -115.14486 2099 ft 18 kts 95°
2026-05-07 22:47 36.07830 -115.14378 2098 ft 20 kts 95°
2026-05-07 22:47 36.07828 -115.14193 2097 ft 23 kts 90°
2026-05-07 22:47 36.07828 -115.13982 2096 ft 25 kts 90°
2026-05-07 22:47 36.07828 -115.13810 2095 ft 21 kts 90°
2026-05-07 22:48 36.07828 -115.13616 2094 ft 24 kts 90°
2026-05-07 22:48 36.07828 -115.13404 2092 ft 26 kts 90°
2026-05-07 22:48 36.07828 -115.13180 2087 ft 28 kts 90°
2026-05-07 22:48 36.07829 -115.12955 2077 ft 28 kts 90°
2026-05-07 22:49 36.07829 -115.12751 2070 ft 21 kts 90°
2026-05-07 22:49 36.07829 -115.12542 2062 ft 27 kts 90°
2026-05-07 22:49 36.07829 -115.12331 2058 ft 12 kts 90°
2026-05-07 22:49 36.07812 -115.12239 2055 ft 9 kts 129°
2026-05-07 22:50 36.07762 -115.12165 2052 ft 7 kts 128°
2026-05-07 22:50 36.07746 -115.12142 2051 ft 0 kts 134°
2026-05-07 22:55 36.07732 -115.12129 2052 ft 7 kts 150°
2026-05-07 22:55 36.07663 -115.12125 2053 ft 7 kts 184°
2026-05-07 22:55 36.07648 -115.12136 2050 ft 1 kts 239°
2026-05-07 22:56 36.07643 -115.12191 2052 ft 15 kts 268°
2026-05-07 22:56 36.07642 -115.12499 2061 ft 64 kts 270°
2026-05-07 22:56 36.07641 -115.13267 2089 ft 113 kts 270°
2026-05-07 22:56 36.07641 -115.14419 2101 ft 153 kts 270°
2026-05-07 22:57 36.07630 -115.15791 2408 ft 159 kts 270°
2026-05-07 22:57 36.07603 -115.17168 2887 ft 164 kts 269°
2026-05-07 22:57 36.07567 -115.18616 3282 ft 172 kts 269°
2026-05-07 22:57 36.07552 -115.20094 3774 ft 172 kts 271°
2026-05-07 22:58 36.07456 -115.21576 4423 ft 171 kts 261°
2026-05-07 22:58 36.07269 -115.23091 5020 ft 188 kts 261°
2026-05-07 22:58 36.06954 -115.24744 5481 ft 209 kts 244°
2026-05-07 22:58 36.05946 -115.26159 5880 ft 237 kts 213°
2026-05-07 22:59 36.04357 -115.27027 6372 ft 259 kts 200°
2026-05-07 22:59 36.02614 -115.27831 7034 ft 275 kts 201°
2026-05-07 22:59 36.00780 -115.28680 7690 ft 286 kts 202°
2026-05-07 22:59 35.98884 -115.29484 8053 ft 290 kts 194°
2026-05-07 23:00 35.96903 -115.29926 9010 ft 290 kts 193°
2026-05-07 23:00 35.94892 -115.30390 9874 ft 297 kts 194°
2026-05-07 23:00 35.92834 -115.30878 10639 ft 308 kts 193°
2026-05-07 23:00 35.90676 -115.31402 11254 ft 323 kts 193°
2026-05-07 23:01 35.88434 -115.31953 12052 ft 331 kts 192°
2026-05-07 23:01 35.86161 -115.32515 12988 ft 336 kts 192°
2026-05-07 23:01 35.83843 -115.33092 13911 ft 343 kts 191°
2026-05-07 23:01 35.81491 -115.33677 14804 ft 347 kts 191°
2026-05-07 23:02 35.79109 -115.34270 15707 ft 352 kts 191°
2026-05-07 23:02 35.76682 -115.34874 16540 ft 359 kts 191°
2026-05-07 23:02 35.74213 -115.35488 17391 ft 365 kts 191°
2026-05-07 23:02 35.71690 -115.36120 18030 ft 377 kts 191°
2026-05-07 23:03 35.69071 -115.36773 18548 ft 390 kts 191°
2026-05-07 23:03 35.66400 -115.37436 19217 ft 395 kts 191°
2026-05-07 23:03 35.63672 -115.38123 19761 ft 405 kts 193°
2026-05-07 23:03 35.61060 -115.39417 20452 ft 407 kts 213°
2026-05-07 23:04 35.58886 -115.41637 21189 ft 406 kts 229°
2026-05-07 23:04 35.56976 -115.44182 22078 ft 405 kts 229°
2026-05-07 23:04 35.55057 -115.46728 22786 ft 409 kts 229°
2026-05-07 23:04 35.53146 -115.49290 23411 ft 414 kts 230°
2026-05-07 23:05 35.51167 -115.51953 23993 ft 419 kts 230°
2026-05-07 23:05 35.49196 -115.54608 24559 ft 422 kts 230°
2026-05-07 23:05 35.47239 -115.57245 25092 ft 426 kts 230°
2026-05-07 23:05 35.45235 -115.59943 25638 ft 429 kts 230°
2026-05-07 23:06 35.43214 -115.62664 26156 ft 433 kts 229°
2026-05-07 23:06 35.41179 -115.65400 26702 ft 435 kts 229°
2026-05-07 23:06 35.39140 -115.68140 27377 ft 434 kts 229°
2026-05-07 23:06 35.37099 -115.70880 27853 ft 437 kts 229°
2026-05-07 23:07 35.35062 -115.73612 27955 ft 433 kts 229°
2026-05-07 23:07 35.33028 -115.76331 27951 ft 433 kts 229°
2026-05-07 23:07 35.30994 -115.79048 27918 ft 433 kts 229°
2026-05-07 23:07 35.28956 -115.81769 27921 ft 434 kts 229°
2026-05-07 23:08 35.26900 -115.84512 27918 ft 442 kts 229°
2026-05-07 23:08 35.24804 -115.87306 27917 ft 449 kts 229°
2026-05-07 23:08 35.22672 -115.90112 27907 ft 452 kts 227°
2026-05-07 23:08 35.20480 -115.92867 27913 ft 452 kts 227°
2026-05-07 23:09 35.18289 -115.95629 27898 ft 452 kts 227°
2026-05-07 23:09 35.16102 -115.98392 27901 ft 452 kts 227°
2026-05-07 23:09 35.13914 -116.01155 27897 ft 452 kts 227°
2026-05-07 23:09 35.11732 -116.03908 27885 ft 452 kts 227°
2026-05-07 23:10 35.09543 -116.06668 27888 ft 452 kts 227°
2026-05-07 23:10 35.07357 -116.09422 27885 ft 452 kts 227°
2026-05-07 23:10 35.05170 -116.12174 27888 ft 452 kts 227°
2026-05-07 23:10 35.02985 -116.14923 27877 ft 452 kts 227°
2026-05-07 23:11 35.00793 -116.17678 27884 ft 452 kts 227°
2026-05-07 23:11 34.98606 -116.20424 27877 ft 452 kts 227°
2026-05-07 23:11 34.96414 -116.23175 27884 ft 452 kts 227°
2026-05-07 23:11 34.94222 -116.25923 27867 ft 452 kts 227°
2026-05-07 23:12 34.92028 -116.28670 27874 ft 451 kts 227°
2026-05-07 23:12 34.89838 -116.31412 27877 ft 451 kts 227°
2026-05-07 23:12 34.87665 -116.34163 27876 ft 451 kts 227°
2026-05-07 23:12 34.85499 -116.36929 27875 ft 451 kts 227°
2026-05-07 23:13 34.83361 -116.39654 27897 ft 451 kts 227°
2026-05-07 23:13 34.81190 -116.42415 27897 ft 451 kts 227°
2026-05-07 23:13 34.79023 -116.45171 27909 ft 451 kts 227°
2026-05-07 23:13 34.76851 -116.47930 27625 ft 451 kts 227°
2026-05-07 23:14 34.74671 -116.50697 26746 ft 455 kts 227°
2026-05-07 23:14 34.72486 -116.53468 25940 ft 450 kts 227°
2026-05-07 23:14 34.70334 -116.56195 25197 ft 446 kts 227°
2026-05-07 23:14 34.68084 -116.58760 24567 ft 442 kts 222°
2026-05-07 23:15 34.65783 -116.61219 23952 ft 438 kts 222°
2026-05-07 23:15 34.63520 -116.63664 23386 ft 434 kts 223°
2026-05-07 23:15 34.61282 -116.66098 22739 ft 429 kts 223°
2026-05-07 23:15 34.59078 -116.68501 22166 ft 423 kts 223°
2026-05-07 23:16 34.56903 -116.70872 21626 ft 417 kts 223°
2026-05-07 23:16 34.54758 -116.73209 21079 ft 412 kts 223°
2026-05-07 23:16 34.52635 -116.75521 20565 ft 408 kts 223°
2026-05-07 23:16 34.50534 -116.77803 20033 ft 404 kts 222°
2026-05-07 23:17 34.48434 -116.80063 19401 ft 403 kts 222°
2026-05-07 23:17 34.46347 -116.82310 18881 ft 399 kts 222°
2026-05-07 23:17 34.44277 -116.84538 18383 ft 395 kts 222°
2026-05-07 23:17 34.42233 -116.86737 17823 ft 392 kts 222°
2026-05-07 23:18 34.40205 -116.88916 17329 ft 387 kts 222°
2026-05-07 23:18 34.38203 -116.91067 16839 ft 382 kts 222°
2026-05-07 23:18 34.36222 -116.93193 16201 ft 379 kts 221°
2026-05-07 23:18 34.34295 -116.95260 15633 ft 371 kts 222°
2026-05-07 23:19 34.32385 -116.97308 15187 ft 360 kts 222°
2026-05-07 23:19 34.30524 -116.99302 14764 ft 357 kts 222°
2026-05-07 23:19 34.28666 -117.01291 14362 ft 357 kts 222°
2026-05-07 23:19 34.26793 -117.03252 14007 ft 355 kts 217°
2026-05-07 23:20 34.24708 -117.04821 13736 ft 350 kts 210°
2026-05-07 23:20 34.22614 -117.06316 13501 ft 350 kts 211°
2026-05-07 23:20 34.20527 -117.07815 13305 ft 349 kts 211°
2026-05-07 23:20 34.18443 -117.09318 13078 ft 350 kts 211°
2026-05-07 23:21 34.16280 -117.10694 12875 ft 352 kts 203°
2026-05-07 23:21 34.14021 -117.11862 12737 ft 354 kts 204°
2026-05-07 23:21 34.11777 -117.13054 12654 ft 352 kts 204°
2026-05-07 23:21 34.09538 -117.14259 12526 ft 352 kts 204°
2026-05-07 23:22 34.07317 -117.15462 12381 ft 346 kts 205°
2026-05-07 23:22 34.05158 -117.16636 12255 ft 335 kts 205°
2026-05-07 23:22 34.03063 -117.17775 12130 ft 324 kts 204°
2026-05-07 23:22 34.01031 -117.18881 12066 ft 320 kts 205°
2026-05-07 23:23 33.99180 -117.20363 11704 ft 321 kts 226°
2026-05-07 23:23 33.97698 -117.22392 11220 ft 323 kts 230°
2026-05-07 23:23 33.96236 -117.24415 10756 ft 318 kts 232°
2026-05-07 23:23 33.94802 -117.26408 10315 ft 311 kts 232°
2026-05-07 23:24 33.93409 -117.28352 9909 ft 302 kts 232°
2026-05-07 23:24 33.92076 -117.30239 9614 ft 291 kts 233°
2026-05-07 23:24 33.90768 -117.32091 9411 ft 290 kts 231°
2026-05-07 23:24 33.89460 -117.33940 9203 ft 290 kts 233°
2026-05-07 23:25 33.88159 -117.35783 8986 ft 287 kts 231°
2026-05-07 23:25 33.86870 -117.37600 8774 ft 282 kts 233°
2026-05-07 23:25 33.85625 -117.39355 8555 ft 269 kts 231°
2026-05-07 23:25 33.84466 -117.40990 8457 ft 250 kts 232°
2026-05-07 23:26 33.83370 -117.42533 8281 ft 237 kts 232°
2026-05-07 23:26 33.82324 -117.44012 8089 ft 226 kts 234°
2026-05-07 23:26 33.81618 -117.45589 8027 ft 205 kts 253°
2026-05-07 23:26 33.81101 -117.47152 8009 ft 203 kts 251°
2026-05-07 23:27 33.80029 -117.50432 8017 ft 215 kts 251°
2026-05-07 23:27 33.79490 -117.52115 8010 ft 216 kts 254°
2026-05-07 23:27 33.79300 -117.53860 7853 ft 209 kts 278°
2026-05-07 23:28 33.79734 -117.55498 7609 ft 205 kts 300°
2026-05-07 23:28 33.80626 -117.56824 7329 ft 204 kts 315°
2026-05-07 23:28 33.81477 -117.58186 7079 ft 206 kts 294°
2026-05-07 23:28 33.82038 -117.59766 6827 ft 205 kts 293°
2026-05-07 23:29 33.82593 -117.61354 6532 ft 206 kts 293°
2026-05-07 23:29 33.82949 -117.63021 6173 ft 208 kts 278°
2026-05-07 23:29 33.83084 -117.64748 5828 ft 206 kts 276°
2026-05-07 23:29 33.83207 -117.66460 5523 ft 204 kts 275°
2026-05-07 23:30 33.83297 -117.68160 5200 ft 203 kts 272°
2026-05-07 23:30 33.83312 -117.69860 4890 ft 203 kts 271°
2026-05-07 23:30 33.83313 -117.71559 4522 ft 203 kts 271°
2026-05-07 23:30 33.83305 -117.73255 4168 ft 202 kts 271°
2026-05-07 23:31 33.83301 -117.74938 3874 ft 199 kts 270°
2026-05-07 23:31 33.82977 -117.76537 3557 ft 202 kts 242°
2026-05-07 23:31 33.81952 -117.77687 3249 ft 205 kts 213°
2026-05-07 23:31 33.80708 -117.78495 3010 ft 202 kts 212°
2026-05-07 23:32 33.79483 -117.79296 2709 ft 198 kts 212°
2026-05-07 23:32 33.78293 -117.80066 2440 ft 190 kts 210°
2026-05-07 23:32 33.77161 -117.80789 2117 ft 177 kts 209°
2026-05-07 23:32 33.76103 -117.81464 1839 ft 165 kts 208°
2026-05-07 23:33 33.75144 -117.82074 1615 ft 149 kts 209°
2026-05-07 23:33 33.74257 -117.82645 1478 ft 142 kts 209°
2026-05-07 23:33 33.73387 -117.83195 1295 ft 141 kts 208°
2026-05-07 23:33 33.72530 -117.83740 1194 ft 138 kts 207°
2026-05-07 23:34 33.71972 -117.84104 1095 ft 138 kts 208°
2026-05-07 23:34 33.71119 -117.84658 908 ft 140 kts 206°
2026-05-07 23:34 33.70264 -117.85181 685 ft 136 kts 206°
2026-05-07 23:34 33.69424 -117.85702 426 ft 135 kts 209°
2026-05-07 23:35 33.68604 -117.86223 223 ft 128 kts 210°
2026-05-07 23:35 33.67860 -117.86698 60 ft 112 kts 208°
2026-05-07 23:35 33.67350 -117.87026 55 ft 51 kts 208°
2026-05-07 23:35 33.67187 -117.87129 55 ft 20 kts 208°
2026-05-07 23:36 33.67046 -117.87219 53 ft 19 kts 205°
2026-05-07 23:36 33.66941 -117.87193 53 ft 11 kts 141°
2026-05-07 23:36 33.66909 -117.87104 53 ft 14 kts 63°
2026-05-07 23:36 33.66977 -117.87027 53 ft 14 kts 40°
2026-05-07 23:37 33.67060 -117.86941 53 ft 18 kts 41°
2026-05-07 23:37 33.67141 -117.86866 49 ft 14 kts 29°
2026-05-07 23:37 33.67239 -117.86800 53 ft 13 kts 30°
2026-05-07 23:37 33.67305 -117.86734 49 ft 14 kts 49°
2026-05-07 23:38 33.67395 -117.86659 52 ft 18 kts 27°
2026-05-07 23:38 33.67493 -117.86597 53 ft 7 kts 28°
2026-05-07 23:38 33.67547 -117.86563 53 ft 11 kts 27°
2026-05-07 23:38 33.67607 -117.86525 52 ft 5 kts 28°
2026-05-07 23:39 33.67634 -117.86502 52 ft 0 kts 52°
2026-05-07 23:39 33.67635 -117.86493 52 ft 1 kts 94°
2026-05-07 23:39 33.67625 -117.86473 52 ft 5 kts 122°
2026-05-07 23:39 33.67611 -117.86442 53 ft 2 kts 119°
2026-05-07 23:40 33.67610 -117.86441 53 ft 0 kts 119°